[[{"header":{"parameterUnit":"m.s-1","parameterCategory":2,"la1":30.2991,"la2":30.254,"lo1":-89.0895,"lo2":-89.0444,"dy":0.0017,"dx":0.0017,"nx":28,"ny":28,"refTime":"2024-06-20T09:00:00:Z","depth":"0","parameterNumber":2,"parameterNumberName":"U-component_of_CURRENTS"},"data":[0,0,0,0,0,0,0,0,0,0,0,0,0,0,0,0,0,0,0,0,0,0,0,0,0,0,0,0,0,0,0,0,0,0,0,0,0,0,0,0,0,0,0,0,0,0,0,0,0,0,0,0,0,0,0,0,0,0,0.3793,0.3792,0,0.3657,0.3655,0.3652,0.3552,0.3552,0.3552,0.3552,0.3364,0.336,0.3355,0,0,0,0,0,0,0,0,0,0,0,0,0,0.3821,0.3821,0.3793,0.3792,0.3791,0.3657,0.3655,0.3652,0.3552,0.3552,0.3552,0.3552,0.3366,0.336,0.3354,0,0,0,0,0,0,0,0,0,0,0,0,0,0.3751,0.3821,0.3793,0.3732,0.3726,0.3658,0.3655,0.3651,0.3552,0.3552,0.3552,0.3552,0.3368,0.3361,0.3353,0.3308,0,0,0.3331,0.3327,0,0,0,0,0,0,0,0,0.3755,0.3749,0.3742,0.3736,0.3729,0.363,0.3596,0.3537,0.3552,0.3608,0.3552,0.3552,0.3455,0.344,0.3402,0.3299,0.3291,0.333,0.3325,0.3322,0.332,0,0,0,0,0,0,0,0.3761,0.3754,0.373,0.3741,0.3734,0.3663,0.3653,0.3583,0.3525,0.3603,0.3598,0.3598,0.3449,0.3409,0.3397,0.3288,0.333,0.3324,0.3319,0.3316,0.322,0.3222,0,0,0,0,0,0,0.3804,0.3759,0.3734,0.3726,0.3753,0.3664,0.3652,0.3654,0.3526,0.351,0.3598,0.3594,0.3422,0.3405,0.339,0.3373,0.3322,0.3315,0.3311,0.3218,0.3221,0.3223,0,0,0,0,0,0,0.3805,0.3803,0.374,0.3747,0.3735,0.3665,0.3667,0.3652,0.3629,0.3525,0.3506,0.3595,0.3421,0.34,0.3354,0.3363,0.3312,0.3305,0.3216,0.3219,0.3222,0.3311,0,0,0,0,0,0,0.3806,0.3804,0.3802,0.375,0.3737,0.3719,0.3667,0.3649,0.3633,0.3626,0.3515,0.3497,0.342,0.3366,0.3346,0.3352,0.3299,0.3214,0.3217,0.3221,0.3305,0.3316,0.3326,0,0,0,0,0,0.3808,0.3797,0.3803,0.38,0.3743,0.3721,0.3707,0.3649,0.3633,0.3627,0.3563,0.3501,0.3376,0.3361,0.3338,0.3342,0.3212,0.3216,0.3221,0.3301,0.3314,0.3326,0,0,0,0,0,0,0.3775,0.3786,0.3791,0.3776,0.377,0.3709,0.3687,0.3669,0.3611,0.3599,0.351,0.3486,0.3456,0.3397,0.3384,0.3333,0.329,0.329,0.3359,0.337,0.338,0.3389,0.3293,0,0,0,0,0,0.3784,0.3792,0.3794,0.3779,0.3789,0.3751,0.3731,0.3706,0.3659,0.3632,0.3563,0.3499,0.3452,0.3413,0.3359,0.3315,0.3285,0.3312,0.3323,0.3331,0.3328,0.332,0.3328,0.3237,0.3237,0.3237,0,0,0.376,0.3772,0.3769,0.3777,0.3761,0.3761,0.3736,0.372,0.3705,0.3621,0.3568,0.3531,0.3456,0.3415,0.3396,0.3363,0.3345,0.3337,0.3344,0.3335,0.3325,0.3334,0.3341,0.324,0.3239,0.3239,0,0,0.3733,0.3746,0.3757,0.3769,0.3781,0.3762,0.3778,0.3747,0.3723,0.3688,0.3638,0.3614,0.3519,0.3473,0.3437,0.3474,0.3411,0.3468,0.35,0.3494,0.35,0.3506,0.3489,0.3492,0.3458,0.3458,0.3459,0,0.3707,0.3727,0.375,0.3772,0.3778,0.3779,0.3789,0.3762,0.3713,0.371,0.3685,0.3608,0.3542,0.3512,0.3521,0.3492,0.348,0.3454,0.3505,0.351,0.3514,0.3495,0.3497,0.3463,0.3463,0.3462,0.3462,0,0.3698,0.3719,0.3727,0.3767,0.3774,0.378,0.3786,0.3779,0.3765,0.3748,0.3737,0.3667,0.3621,0.3611,0.3561,0.357,0.3551,0.3531,0.3471,0.3529,0.3505,0.3506,0.347,0.3468,0.3467,0.3466,0,0,0.362,0.3709,0.3708,0.3734,0.378,0.3772,0.3786,0.3797,0.3796,0.3777,0.3767,0.3724,0.3717,0.3679,0.3639,0.3625,0.364,0.3591,0.3588,0.3567,0.3626,0.3583,0.3578,0.3635,0.3635,0.3636,0.3601,0,0.3607,0.3655,0.3701,0.3717,0.3743,0.3776,0.378,0.3791,0.3794,0.3779,0.3769,0.374,0.3734,0.3708,0.3708,0.3646,0.3646,0.3651,0.3578,0.3576,0.3524,0.3579,0.3449,0.3405,0.3601,0.3601,0.3601,0,0.3579,0.3621,0.3661,0.3715,0.3727,0.3732,0.3756,0.3763,0.3783,0.3791,0.381,0.3787,0.377,0.3748,0.3719,0.3726,0.3691,0.3655,0.3653,0.3577,0.3533,0.3378,0.3398,0.3317,0.3602,0.3602,0.3602,0,0.3512,0.3577,0.361,0.3631,0.3695,0.3708,0.373,0.3767,0.3786,0.3801,0.3802,0.381,0.3773,0.3766,0.3715,0.3711,0.3676,0.3651,0.3591,0.3586,0.3441,0.3423,0.3362,0.3646,0.3646,0.3646,0.3646,0,0.3482,0.3495,0.3579,0.3593,0.3609,0.3666,0.369,0.3718,0.3763,0.3761,0.3801,0.379,0.3777,0.3754,0.3726,0.3668,0.3693,0.3604,0.3579,0.347,0.3456,0.3349,0.3315,0.3645,0.3645,0.3645,0.3646,0,0.3413,0.3475,0.3503,0.3569,0.3589,0.3594,0.3678,0.3676,0.3744,0.3734,0.3734,0.3769,0.374,0.3734,0.3687,0.3654,0.3499,0.3591,0.3464,0.3426,0.3275,0.3251,0.3013,0.2922,0.3498,0.3497,0.3496,0,0.3397,0.341,0.3472,0.3478,0.3511,0.355,0.3561,0.3653,0.3657,0.3708,0.3669,0.3678,0.3637,0.3605,0.3564,0.352,0.3434,0.3373,0.334,0.3256,0.3211,0.3076,0.3008,0.318,0.3177,0.3174,0.3172,0,0.3353,0.337,0.3393,0.3402,0.341,0.3428,0.3455,0.3463,0.3522,0.3511,0.3481,0.3465,0.3472,0.3374,0.3366,0.3336,0.3197,0.3312,0.3247,0.2981,0.2803,0.2707,0.3219,0.3146,0.3149,0.3151,0.3152,0.3153,0.3306,0.3293,0.3307,0.3289,0.3296,0.3247,0.3188,0.3209,0.3179,0.3101,0.324,0.3165,0.3206,0.3179,0.3132,0.3011,0.3001,0.2909,0.2894,0.277,0.2654,0.3118,0.301,0.3012,0.3014,0.3015,0.3016,0,0.3203,0.3188,0.3183,0.3124,0.3038,0.3095,0.3047,0.2945,0.2806,0.2862,0.2829,0.2839,0.2778,0.2814,0.2748,0.2615,0.2485,0.2541,0.2326,0.2289,0.272,0.2682,0.2471,0.2471,0.2471,0.2471,0.2471,0.2471,0.3151,0.3076,0.3046,0.286,0.2807,0.2627,0.2548,0.2443,0.2447,0.2352,0.2348,0.2425,0.2546,0.2511,0.2379,0.232,0.213,0.1999,0.2011,0.2347,0.238,0.2412,0.2369,0.2096,0.2095,0.1469,0.1464,0.1461]},{"header":{"parameterUnit":"m.s-1","parameterCategory":2,"la1":30.2991,"la2":30.254,"lo1":-89.0895,"lo2":-89.0444,"dy":0.0017,"dx":0.0017,"nx":28,"ny":28,"refTime":"2024-06-20T09:00:00:Z","depth":"0","parameterNumber":3,"parameterNumberName":"V-component_of_CURRENTS"},"data":[0,0,0,0,0,0,0,0,0,0,0,0,0,0,0,0,0,0,0,0,0,0,0,0,0,0,0,0,0,0,0,0,0,0,0,0,0,0,0,0,0,0,0,0,0,0,0,0,0,0,0,0,0,0,0,0,0,0,0.0131,0.0131,0,0.0144,0.0144,0.0144,0.0146,0.0146,0.0146,0.0146,0.0144,0.0144,0.0144,0,0,0,0,0,0,0,0,0,0,0,0,0,0.0114,0.0114,0.0131,0.0131,0.0131,0.0144,0.0144,0.0144,0.0146,0.0146,0.0146,0.0146,0.0144,0.0144,0.0144,0,0,0,0,0,0,0,0,0,0,0,0,0,0.0124,0.0114,0.0131,0.0133,0.0134,0.0144,0.0144,0.0144,0.0146,0.0146,0.0146,0.0146,0.0144,0.0144,0.0144,0.0148,0,0,0.0144,0.0144,0,0,0,0,0,0,0,0,0.0123,0.0124,0.0133,0.0133,0.0134,0.0143,0.0138,0.0145,0.0146,0.0142,0.0146,0.0146,0.0142,0.0143,0.0146,0.0148,0.0148,0.0144,0.0144,0.0144,0.0144,0,0,0,0,0,0,0,0.0123,0.0124,0.0136,0.0133,0.0134,0.0137,0.0138,0.0139,0.0143,0.0142,0.0142,0.0144,0.0143,0.0146,0.0146,0.0148,0.0144,0.0144,0.0145,0.0145,0.0151,0.0151,0,0,0,0,0,0,0.0121,0.0123,0.0136,0.0136,0.0128,0.0137,0.0138,0.014,0.0143,0.0143,0.0144,0.0144,0.0146,0.0146,0.0146,0.0163,0.0144,0.0145,0.0145,0.0151,0.0151,0.0151,0,0,0,0,0,0,0.012,0.0122,0.0135,0.013,0.0132,0.0137,0.014,0.0141,0.0144,0.0145,0.0145,0.0146,0.0146,0.0146,0.015,0.0163,0.0145,0.0145,0.0151,0.0151,0.0151,0.0191,0,0,0,0,0,0,0.012,0.0122,0.0124,0.013,0.0132,0.0145,0.014,0.0141,0.0145,0.0145,0.0147,0.0146,0.0145,0.015,0.015,0.0162,0.0145,0.015,0.0151,0.0151,0.0189,0.0192,0.0195,0,0,0,0,0,0.0119,0.0127,0.0124,0.0126,0.0135,0.0146,0.0147,0.0151,0.0146,0.0152,0.0151,0.0146,0.0151,0.015,0.015,0.0163,0.015,0.0151,0.0151,0.0188,0.0191,0.0195,0,0,0,0,0,0,0.0124,0.0128,0.0125,0.0134,0.014,0.0146,0.0154,0.0151,0.0156,0.0156,0.0151,0.0151,0.0158,0.0152,0.0151,0.0163,0.0149,0.0149,0.0177,0.018,0.0183,0.0195,0.0145,0,0,0,0,0,0.0125,0.0131,0.0134,0.0143,0.0146,0.0148,0.0153,0.0155,0.0159,0.016,0.0159,0.0157,0.016,0.0163,0.0162,0.0171,0.016,0.0177,0.018,0.0182,0.0191,0.0183,0.0186,0.0152,0.0152,0.0152,0,0,0.013,0.0133,0.0137,0.0144,0.015,0.0167,0.0151,0.0163,0.0176,0.0159,0.0176,0.0167,0.0163,0.0174,0.0177,0.0172,0.0184,0.0183,0.0185,0.0193,0.0184,0.0187,0.019,0.0152,0.0152,0.0152,0,0,0.0151,0.0146,0.0161,0.0167,0.0176,0.018,0.0183,0.0188,0.019,0.0201,0.0191,0.0189,0.0194,0.0195,0.0195,0.0211,0.0197,0.0208,0.0238,0.023,0.0233,0.0235,0.022,0.0221,0.0212,0.0213,0.0213,0,0.0157,0.0178,0.0168,0.0186,0.0198,0.0188,0.0212,0.0214,0.0219,0.023,0.0212,0.022,0.0206,0.0227,0.0228,0.0219,0.021,0.0228,0.0235,0.0237,0.0239,0.0222,0.0223,0.0214,0.0214,0.0214,0.0214,0,0.0194,0.0209,0.022,0.0241,0.0248,0.0268,0.0268,0.0276,0.0272,0.0279,0.029,0.0267,0.0278,0.0265,0.0251,0.0263,0.025,0.0238,0.023,0.0245,0.0226,0.0226,0.0217,0.0217,0.0216,0.0216,0,0,0.0223,0.0242,0.0249,0.0268,0.028,0.0295,0.0313,0.0337,0.0371,0.035,0.0384,0.036,0.035,0.0348,0.0325,0.0307,0.0299,0.028,0.0279,0.0271,0.0279,0.0282,0.0281,0.0291,0.0292,0.0292,0.0259,0,0.0261,0.0307,0.0303,0.035,0.0376,0.0368,0.0393,0.0409,0.0422,0.0451,0.0417,0.0436,0.0382,0.0388,0.0363,0.0325,0.0302,0.0309,0.026,0.0259,0.0265,0.0283,0.0324,0.03,0.0258,0.0258,0.0258,0,0.0308,0.0334,0.0381,0.0415,0.0426,0.0447,0.0496,0.0521,0.0549,0.0558,0.0563,0.0541,0.0518,0.0463,0.0401,0.0411,0.0349,0.0302,0.03,0.0291,0.0262,0.0278,0.0301,0.0218,0.0258,0.0258,0.0258,0,0.0353,0.0393,0.0433,0.0445,0.0478,0.0496,0.0521,0.056,0.061,0.0632,0.0668,0.0632,0.063,0.0545,0.0446,0.0426,0.0373,0.0335,0.0275,0.0274,0.0295,0.0296,0.024,0.0283,0.0284,0.0284,0.0284,0,0.0402,0.0438,0.0457,0.0484,0.0548,0.0546,0.0629,0.065,0.0707,0.0796,0.0731,0.0786,0.065,0.0604,0.0488,0.0396,0.0408,0.0288,0.0272,0.0308,0.0311,0.0227,0.0171,0.0282,0.0283,0.0283,0.0283,0,0.0448,0.0459,0.0512,0.055,0.0572,0.0621,0.0707,0.0778,0.0807,0.0919,0.0926,0.0911,0.0857,0.0712,0.0588,0.0472,0.032,0.032,0.0368,0.0358,0.0216,0.0161,0.0079,0.0043,0.0247,0.0247,0.0247,0,0.0473,0.0504,0.0568,0.0618,0.0638,0.0713,0.0783,0.0833,0.0924,0.1018,0.1083,0.1049,0.107,0.0874,0.0664,0.0465,0.0348,0.0347,0.0308,0.0224,0.015,0.0101,0.0073,0.0344,0.0345,0.0346,0.0346,0,0.0525,0.0545,0.0594,0.0699,0.0772,0.0868,0.0969,0.1055,0.114,0.1225,0.134,0.1354,0.1185,0.103,0.074,0.0584,0.0306,0.0354,0.0261,0.0221,0.0172,0.0125,0.0338,0.0352,0.0351,0.0351,0.0351,0.035,0.0569,0.0617,0.0689,0.0791,0.0889,0.1023,0.111,0.123,0.1379,0.152,0.1538,0.1595,0.1353,0.0982,0.0756,0.0381,0.0353,0.0264,0.0203,0.016,0.0132,0.0354,0.0353,0.0352,0.0352,0.0351,0.0351,0,0.063,0.0692,0.0785,0.0908,0.1026,0.1064,0.1239,0.1335,0.1512,0.1657,0.1751,0.1713,0.1403,0.1045,0.0553,0.0289,0.0174,0.0136,0.0078,0.0054,0.0256,0.0269,0.0257,0.0258,0.0258,0.0258,0.0258,0.0258,0.0666,0.0766,0.0815,0.101,0.1099,0.1251,0.1351,0.1497,0.1632,0.1813,0.1889,0.1925,0.1708,0.084,0.0282,0.014,-0.0037,-0.008,-0.0181,-0.0041,-0.0034,-0.0027,-0.0028,-0.0101,-0.0101,-0.0335,-0.0337,-0.0339]}],[{"header":{"parameterUnit":"m.s-1","parameterCategory":2,"la1":30.2991,"la2":30.254,"lo1":-89.0895,"lo2":-89.0444,"dy":0.0017,"dx":0.0017,"nx":28,"ny":28,"refTime":"2024-06-20T09:00:00:Z","depth":"2","parameterNumber":2,"parameterNumberName":"U-component_of_CURRENTS"},"data":[0,0,0,0,0,0,0,0,0,0,0,0,0,0,0,0,0,0,0,0,0,0,0,0,0,0,0,0,0,0,0,0,0,0,0,0,0,0,0,0,0,0,0,0,0,0,0,0,0,0,0,0,0,0,0,0,0,0,0.2632,0.2632,0,0.2649,0.2649,0.265,0.266,0.266,0.266,0.266,0.2647,0.2646,0.2646,0,0,0,0,0,0,0,0,0,0,0,0,0,0.264,0.2639,0.2632,0.2632,0.2632,0.2649,0.2649,0.265,0.266,0.266,0.266,0.266,0.2647,0.2646,0.2646,0,0,0,0,0,0,0,0,0,0,0,0,0,0.2643,0.2639,0.2632,0.2641,0.2642,0.2649,0.2649,0.265,0.266,0.266,0.266,0.2661,0.2647,0.2646,0.2645,0.2635,0,0,0.2643,0.2643,0,0,0,0,0,0,0,0,0.2643,0.2643,0.2639,0.264,0.2641,0.2654,0.2647,0.2644,0.266,0.2651,0.266,0.2661,0.2647,0.2646,0.2647,0.2635,0.2634,0.2643,0.2642,0.2642,0.2642,0,0,0,0,0,0,0,0.2643,0.2642,0.2637,0.2639,0.2641,0.2655,0.2655,0.2647,0.2646,0.2652,0.2653,0.2657,0.2647,0.2648,0.2647,0.2634,0.2643,0.2642,0.2642,0.2641,0.2679,0.2681,0,0,0,0,0,0,0.2641,0.2642,0.2637,0.2638,0.2644,0.2655,0.2655,0.2648,0.2647,0.2647,0.2657,0.2658,0.2649,0.2648,0.2647,0.2684,0.2642,0.2641,0.2641,0.2678,0.268,0.2681,0,0,0,0,0,0,0.2641,0.264,0.2636,0.2642,0.2643,0.2654,0.2647,0.2649,0.2667,0.2651,0.2651,0.2675,0.2649,0.2648,0.266,0.2681,0.2641,0.264,0.2676,0.2678,0.268,0.2726,0,0,0,0,0,0,0.2641,0.264,0.2644,0.2642,0.2642,0.2651,0.2647,0.2649,0.2668,0.267,0.2666,0.2664,0.2649,0.2661,0.2659,0.2679,0.264,0.2674,0.2677,0.268,0.2723,0.273,0.2735,0,0,0,0,0,0.2641,0.264,0.2643,0.2644,0.2644,0.2652,0.2654,0.2662,0.2669,0.2679,0.2683,0.2665,0.2677,0.2661,0.2658,0.2679,0.2673,0.2676,0.2679,0.272,0.2728,0.2735,0,0,0,0,0,0,0.2637,0.2641,0.2645,0.2643,0.2653,0.2654,0.2665,0.2673,0.2684,0.269,0.2677,0.2676,0.2701,0.2684,0.2667,0.2701,0.2675,0.2678,0.2707,0.2714,0.2721,0.2733,0.2639,0,0,0,0,0,0.264,0.2642,0.2649,0.2648,0.2657,0.2666,0.2674,0.2682,0.2688,0.2695,0.2697,0.2701,0.271,0.2707,0.2714,0.272,0.2719,0.2736,0.2742,0.2748,0.2758,0.2786,0.2795,0.2692,0.2692,0.2692,0,0,0.2636,0.2639,0.2641,0.2649,0.2657,0.267,0.2672,0.2689,0.2704,0.269,0.2716,0.2727,0.2721,0.274,0.2748,0.2727,0.2775,0.2752,0.2756,0.2764,0.279,0.28,0.2809,0.2694,0.2694,0.2694,0,0,0.2632,0.2636,0.2644,0.266,0.2681,0.2683,0.2694,0.2713,0.2728,0.2747,0.2756,0.2782,0.2779,0.279,0.279,0.2835,0.2817,0.2839,0.2867,0.2894,0.2902,0.291,0.291,0.2917,0.283,0.283,0.283,0,0.2635,0.2633,0.2648,0.2667,0.2678,0.2692,0.2707,0.2723,0.2746,0.2769,0.2761,0.281,0.2804,0.2839,0.2857,0.2849,0.2854,0.2834,0.2901,0.2909,0.2916,0.2914,0.2922,0.2833,0.2833,0.2832,0.2832,0,0.2639,0.2647,0.2654,0.2676,0.2696,0.2706,0.2734,0.2763,0.278,0.28,0.2854,0.286,0.289,0.2895,0.2883,0.2938,0.2923,0.2914,0.2879,0.2929,0.2924,0.2931,0.2837,0.2836,0.2835,0.2834,0,0,0.2611,0.2648,0.2651,0.2662,0.2701,0.2709,0.2752,0.2787,0.282,0.2857,0.2899,0.2933,0.2959,0.2964,0.2969,0.2987,0.3032,0.2972,0.2973,0.2968,0.308,0.3013,0.3013,0.3039,0.304,0.3042,0.3053,0,0.2606,0.2627,0.2653,0.2672,0.2681,0.2725,0.2755,0.2803,0.2841,0.2889,0.293,0.2969,0.2977,0.2996,0.3026,0.3038,0.3055,0.3029,0.3038,0.3038,0.2968,0.3021,0.2772,0.2756,0.3059,0.306,0.3061,0,0.2593,0.2607,0.2627,0.2661,0.2672,0.2695,0.2755,0.2791,0.2875,0.2913,0.2986,0.3015,0.3075,0.3059,0.3121,0.3107,0.3105,0.3103,0.3103,0.3031,0.2984,0.2759,0.2757,0.3072,0.3071,0.3071,0.307,0,0.2545,0.2581,0.259,0.2606,0.2657,0.2688,0.2721,0.2804,0.2853,0.2944,0.2987,0.3062,0.3103,0.3132,0.3153,0.3139,0.3199,0.3171,0.3108,0.3102,0.2887,0.2859,0.321,0.321,0.321,0.321,0.321,0,0.2512,0.2518,0.2571,0.2579,0.2602,0.2659,0.2711,0.2768,0.2864,0.2916,0.3004,0.3056,0.3127,0.3171,0.3172,0.3171,0.3222,0.3127,0.3111,0.2894,0.2868,0.314,0.3132,0.3211,0.321,0.321,0.321,0,0.2457,0.249,0.2504,0.256,0.2582,0.2606,0.2707,0.2741,0.2847,0.2921,0.2953,0.3073,0.3127,0.3178,0.3217,0.3189,0.3188,0.317,0.2903,0.2856,0.306,0.3054,0.3089,0.3087,0.3085,0.3084,0.3083,0,0.2427,0.243,0.2485,0.25,0.2529,0.2583,0.2613,0.2725,0.277,0.2917,0.2934,0.304,0.3073,0.3127,0.3096,0.3081,0.3162,0.2838,0.2768,0.3072,0.3053,0.305,0.3046,0.2489,0.2483,0.2478,0.2474,0,0.2377,0.2403,0.242,0.2445,0.2476,0.2507,0.2565,0.2598,0.2714,0.2774,0.2844,0.2888,0.2955,0.2837,0.2847,0.2807,0.282,0.2738,0.3129,0.257,0.251,0.249,0.2506,0.2431,0.2435,0.2438,0.244,0.2442,0.2345,0.234,0.2365,0.2373,0.2406,0.2404,0.2389,0.2446,0.2487,0.2528,0.2659,0.2636,0.2663,0.2551,0.2464,0.2401,0.2597,0.2464,0.2477,0.2495,0.2436,0.2378,0.226,0.2263,0.2266,0.2269,0.2271,0,0.2283,0.2282,0.2288,0.2281,0.2255,0.2312,0.2322,0.2276,0.2249,0.2321,0.2352,0.2169,0.2085,0.2119,0.1945,0.1935,0.1899,0.1857,0.1781,0.1827,0.1867,0.1773,0.1422,0.142,0.1417,0.1415,0,0,0.2256,0.2222,0.2204,0.2125,0.212,0.2046,0.2021,0.1975,0.1985,0.1929,0.1895,0.2029,0.2076,0.1736,0.168,0.1518,0.1665,0.146,0.2145,0.2104,0.2141,0.2225,0.2134,0,0,0,0,0]},{"header":{"parameterUnit":"m.s-1","parameterCategory":2,"la1":30.2991,"la2":30.254,"lo1":-89.0895,"lo2":-89.0444,"dy":0.0017,"dx":0.0017,"nx":28,"ny":28,"refTime":"2024-06-20T09:00:00:Z","depth":"2","parameterNumber":3,"parameterNumberName":"V-component_of_CURRENTS"},"data":[0,0,0,0,0,0,0,0,0,0,0,0,0,0,0,0,0,0,0,0,0,0,0,0,0,0,0,0,0,0,0,0,0,0,0,0,0,0,0,0,0,0,0,0,0,0,0,0,0,0,0,0,0,0,0,0,0,0,0.0244,0.0244,0,0.0231,0.0231,0.0231,0.0216,0.0216,0.0216,0.0216,0.0204,0.0204,0.0204,0,0,0,0,0,0,0,0,0,0,0,0,0,0.0223,0.0223,0.0244,0.0244,0.0244,0.0231,0.0231,0.0231,0.0216,0.0216,0.0216,0.0216,0.0204,0.0204,0.0204,0,0,0,0,0,0,0,0,0,0,0,0,0,0.0223,0.0223,0.0244,0.0236,0.0235,0.0231,0.0231,0.0231,0.0216,0.0216,0.0216,0.0215,0.0204,0.0204,0.0204,0.0207,0,0,0.0203,0.0203,0,0,0,0,0,0,0,0,0.0223,0.0223,0.0237,0.0236,0.0235,0.0225,0.0219,0.0223,0.0216,0.0223,0.0216,0.0215,0.0212,0.0211,0.0208,0.0207,0.0206,0.0203,0.0203,0.0203,0.0203,0,0,0,0,0,0,0,0.0223,0.0224,0.0239,0.0237,0.0236,0.022,0.022,0.0219,0.0219,0.0222,0.0221,0.022,0.0211,0.0209,0.0208,0.0206,0.0203,0.0203,0.0203,0.0203,0.0204,0.0204,0,0,0,0,0,0,0.0228,0.0224,0.0239,0.0238,0.0229,0.0221,0.0221,0.0228,0.0219,0.0217,0.0221,0.022,0.0209,0.0208,0.0208,0.0224,0.0203,0.0203,0.0202,0.0203,0.0204,0.0204,0,0,0,0,0,0,0.0227,0.0229,0.024,0.023,0.0231,0.0222,0.023,0.0228,0.0224,0.0217,0.0216,0.0219,0.0209,0.0208,0.021,0.0223,0.0202,0.0202,0.0203,0.0204,0.0204,0.0249,0,0,0,0,0,0,0.0227,0.023,0.0236,0.0231,0.0232,0.0242,0.023,0.0228,0.0225,0.0223,0.0215,0.0214,0.0209,0.021,0.0209,0.0222,0.0202,0.0203,0.0203,0.0204,0.0247,0.0251,0.0254,0,0,0,0,0,0.0226,0.0241,0.0236,0.0238,0.0241,0.0243,0.0242,0.0234,0.0225,0.0228,0.0221,0.0214,0.0211,0.021,0.0209,0.0223,0.0203,0.0203,0.0204,0.0246,0.025,0.0254,0,0,0,0,0,0,0.0236,0.0241,0.0236,0.0251,0.0248,0.0241,0.0245,0.0235,0.0231,0.0231,0.0219,0.0218,0.0223,0.0214,0.0213,0.0222,0.0205,0.0205,0.0237,0.0241,0.0244,0.0255,0.0202,0,0,0,0,0,0.0241,0.0254,0.025,0.0262,0.0263,0.0252,0.0251,0.0245,0.0241,0.0238,0.0233,0.0226,0.0224,0.0225,0.0221,0.0229,0.021,0.0234,0.0238,0.0241,0.0248,0.0227,0.0229,0.0205,0.0205,0.0205,0,0,0.0246,0.0252,0.0258,0.0264,0.0262,0.0276,0.0251,0.0254,0.0264,0.0238,0.0252,0.0238,0.0227,0.0236,0.0238,0.0231,0.0236,0.0241,0.0244,0.025,0.0228,0.023,0.0232,0.0205,0.0205,0.0205,0,0,0.027,0.0271,0.029,0.0292,0.0293,0.0291,0.0293,0.0287,0.0282,0.0287,0.0273,0.0266,0.0264,0.0261,0.0258,0.0274,0.0252,0.0272,0.0302,0.0282,0.0284,0.0286,0.0261,0.026,0.0276,0.0276,0.0276,0,0.0275,0.0304,0.0294,0.0314,0.0324,0.0302,0.0325,0.0319,0.0314,0.0319,0.0297,0.0291,0.0276,0.029,0.0293,0.0283,0.0266,0.0291,0.0287,0.0289,0.0289,0.0263,0.0262,0.0278,0.0278,0.0278,0.0278,0,0.0315,0.0336,0.0349,0.0372,0.0378,0.0394,0.0387,0.039,0.0378,0.0373,0.0373,0.0344,0.0343,0.0333,0.0318,0.0323,0.0306,0.0292,0.0281,0.0295,0.0266,0.0264,0.0282,0.0281,0.028,0.0279,0,0,0.0338,0.0371,0.0378,0.0401,0.0412,0.0425,0.044,0.0455,0.0478,0.0448,0.0464,0.0439,0.0418,0.0411,0.0386,0.0363,0.0345,0.0334,0.0332,0.0315,0.0298,0.0286,0.0281,0.0332,0.0332,0.0332,0.0275,0,0.0376,0.043,0.0434,0.0485,0.0515,0.0504,0.0527,0.0533,0.053,0.054,0.0494,0.0499,0.045,0.0448,0.0417,0.0369,0.0341,0.0362,0.0283,0.028,0.0272,0.0279,0.029,0.024,0.0272,0.0272,0.0271,0,0.0422,0.0455,0.051,0.0556,0.0567,0.059,0.063,0.0648,0.0651,0.0644,0.0629,0.0593,0.0558,0.0506,0.0425,0.0441,0.0375,0.0325,0.0321,0.0294,0.0263,0.0231,0.0234,0.0267,0.0267,0.0267,0.0268,0,0.046,0.0512,0.0561,0.0576,0.0618,0.0638,0.0663,0.0683,0.0716,0.0712,0.0725,0.0673,0.0651,0.056,0.045,0.0439,0.0351,0.0323,0.0247,0.0245,0.0232,0.0229,0.0261,0.0261,0.0261,0.0262,0.0262,0,0.0509,0.0551,0.0583,0.0613,0.0682,0.0686,0.0758,0.0772,0.0798,0.0852,0.0783,0.0798,0.0663,0.0593,0.0479,0.036,0.0372,0.0256,0.0233,0.0247,0.0246,0.0251,0.0251,0.0259,0.026,0.026,0.0261,0,0.055,0.057,0.0633,0.0681,0.0704,0.0753,0.0828,0.0878,0.0889,0.0951,0.0949,0.0896,0.0808,0.0665,0.0524,0.0412,0.029,0.0243,0.0265,0.0246,0.0187,0.0189,0.0151,0.0151,0.015,0.0149,0.0149,0,0.0577,0.0612,0.0687,0.073,0.0755,0.0828,0.0886,0.0926,0.0983,0.1018,0.1048,0.098,0.0949,0.0727,0.0525,0.0327,0.0296,0.0195,0.0174,0.0196,0.0177,0.0181,0.0184,0.0167,0.0167,0.0167,0.0166,0,0.0628,0.065,0.0702,0.0791,0.0856,0.0945,0.1023,0.108,0.1132,0.1173,0.1209,0.1183,0.0986,0.0791,0.0518,0.0376,0.0226,0.0184,0.0205,0.0198,0.0207,0.019,0.0193,0.0164,0.0164,0.0164,0.0165,0.0165,0.0665,0.0706,0.0768,0.0854,0.0937,0.1038,0.1107,0.1188,0.128,0.1336,0.1321,0.128,0.1067,0.0718,0.048,0.0219,0.0234,0.0126,0.0128,0.013,0.0147,0.0155,0.0105,0.0105,0.0105,0.0105,0.0105,0,0.0704,0.0749,0.0827,0.0924,0.101,0.1054,0.1183,0.1245,0.1345,0.1402,0.1426,0.1211,0.0999,0.0743,0.037,0.0152,0.0128,0.0064,0.0088,0.0092,0.0095,0.0111,0.0058,0.0057,0.0057,0.0056,0,0,0.0725,0.0793,0.0827,0.0959,0.1031,0.1143,0.1215,0.1312,0.1379,0.1421,0.14,0.1368,0.1076,0.0795,0.0498,0.0281,0.0231,0.0226,0.0287,0.0354,0.036,0.0153,0.0185,0,0,0,0,0]}],[{"header":{"parameterUnit":"m.s-1","parameterCategory":2,"la1":30.2991,"la2":30.254,"lo1":-89.0895,"lo2":-89.0444,"dy":0.0017,"dx":0.0017,"nx":28,"ny":28,"refTime":"2024-06-20T09:00:00:Z","depth":"4","parameterNumber":2,"parameterNumberName":"U-component_of_CURRENTS"},"data":[0,0,0,0,0,0,0,0,0,0,0,0,0,0,0,0,0,0,0,0,0,0,0,0,0,0,0,0,0,0,0,0,0,0,0,0,0,0,0,0,0,0,0,0,0,0,0,0,0,0,0,0,0,0,0,0,0,0,0.1513,0.1513,0,0.1582,0.1583,0.1584,0.1656,0.1656,0.1657,0.1658,0.1774,0.1777,0.1779,0,0,0,0,0,0,0,0,0,0,0,0,0,0.1478,0.1479,0.1513,0.1513,0.1514,0.1582,0.1583,0.1584,0.1655,0.1656,0.1658,0.1659,0.1774,0.1776,0.1779,0,0,0,0,0,0,0,0,0,0,0,0,0,0.1516,0.1479,0.1513,0.1557,0.1562,0.1582,0.1583,0.1584,0.1655,0.1657,0.1658,0.1659,0.1773,0.1776,0.1779,0.1773,0,0,0.179,0.1791,0,0,0,0,0,0,0,0,0.1513,0.1517,0.155,0.1554,0.156,0.1611,0.1613,0.1649,0.1655,0.1621,0.1658,0.166,0.1722,0.173,0.1741,0.1778,0.1783,0.179,0.1792,0.1793,0.1794,0,0,0,0,0,0,0,0.1511,0.1515,0.1541,0.1551,0.1557,0.1586,0.1593,0.1621,0.1665,0.1624,0.1629,0.1635,0.1726,0.1737,0.1744,0.1785,0.179,0.1793,0.1795,0.1796,0.1932,0.1933,0,0,0,0,0,0,0.1497,0.1512,0.1539,0.1543,0.1538,0.1586,0.1593,0.1594,0.1663,0.1675,0.1634,0.1638,0.1731,0.174,0.1748,0.1841,0.1793,0.1797,0.1798,0.193,0.1932,0.1934,0,0,0,0,0,0,0.1496,0.1498,0.1536,0.1529,0.1536,0.1584,0.1585,0.1594,0.1641,0.167,0.1683,0.1674,0.1732,0.1744,0.1805,0.1842,0.1798,0.1801,0.1928,0.1931,0.1933,0.1965,0,0,0,0,0,0,0.1494,0.1497,0.1513,0.1527,0.1535,0.1568,0.1584,0.1595,0.1639,0.1647,0.1708,0.1718,0.1734,0.18,0.1808,0.1846,0.1804,0.1926,0.1929,0.1932,0.1962,0.1968,0.1973,0,0,0,0,0,0.1493,0.1497,0.1513,0.1517,0.1548,0.1568,0.1576,0.1616,0.164,0.1663,0.1709,0.1718,0.1825,0.1804,0.1813,0.1853,0.1925,0.1929,0.1932,0.1959,0.1967,0.1973,0,0,0,0,0,0,0.1495,0.1505,0.1523,0.1533,0.1561,0.1581,0.1607,0.1632,0.1685,0.1706,0.1735,0.1749,0.1821,0.1829,0.1805,0.1902,0.1878,0.1883,0.1895,0.1903,0.1908,0.1914,0.1807,0,0,0,0,0,0.1499,0.1508,0.1525,0.1541,0.1553,0.1588,0.1609,0.1636,0.1673,0.17,0.1744,0.1792,0.1836,0.1864,0.1904,0.1949,0.196,0.1982,0.1988,0.1993,0.2005,0.2057,0.2069,0.1945,0.1945,0.1945,0,0,0.1507,0.1513,0.1523,0.1543,0.1569,0.1593,0.1606,0.1645,0.1679,0.1703,0.1779,0.182,0.1855,0.1914,0.1946,0.1929,0.203,0.1997,0.2001,0.2011,0.2062,0.2074,0.2085,0.1948,0.1947,0.1947,0,0,0.1513,0.1532,0.1541,0.1562,0.16,0.1619,0.1636,0.1679,0.1718,0.1778,0.1814,0.1876,0.1937,0.1974,0.1995,0.2055,0.2064,0.2073,0.2103,0.2154,0.2164,0.2174,0.2184,0.2194,0.207,0.207,0.207,0,0.1529,0.1532,0.1551,0.1566,0.1589,0.1633,0.1656,0.1695,0.176,0.1801,0.181,0.1935,0.1963,0.2039,0.2062,0.2069,0.2088,0.2071,0.2161,0.2171,0.218,0.2189,0.2199,0.2072,0.2071,0.2071,0.2071,0,0.153,0.1551,0.156,0.1591,0.1623,0.165,0.1696,0.1752,0.1803,0.1846,0.1947,0.1992,0.2067,0.2085,0.2092,0.2178,0.2167,0.2166,0.214,0.2194,0.2199,0.221,0.2074,0.2074,0.2073,0.2073,0,0,0.1517,0.1552,0.1561,0.1578,0.1639,0.1657,0.1729,0.1795,0.1853,0.193,0.2007,0.2088,0.2134,0.2162,0.219,0.223,0.2298,0.2229,0.223,0.2232,0.2393,0.2221,0.2215,0.232,0.2323,0.2325,0.2363,0,0.1518,0.1536,0.1565,0.1607,0.162,0.1688,0.1745,0.1822,0.1897,0.1984,0.2058,0.2144,0.2155,0.2204,0.2251,0.23,0.2333,0.2287,0.2347,0.2348,0.2183,0.2224,0.2333,0.2371,0.2373,0.2375,0.2376,0,0.1504,0.1518,0.1551,0.1605,0.1621,0.1667,0.1772,0.1833,0.1963,0.2027,0.2135,0.2198,0.2298,0.2286,0.2397,0.2373,0.2392,0.2409,0.2411,0.2249,0.2196,0.2312,0.2396,0.2394,0.2393,0.2391,0.239,0,0.146,0.1506,0.153,0.155,0.1624,0.1674,0.1735,0.1858,0.1933,0.2075,0.215,0.2265,0.2346,0.2401,0.2454,0.244,0.2547,0.2526,0.2382,0.2369,0.2499,0.2489,0.2593,0.2593,0.2593,0.2592,0.2592,0,0.1423,0.1447,0.1516,0.1528,0.1584,0.1652,0.1747,0.1829,0.1968,0.2058,0.2182,0.2262,0.2387,0.2462,0.248,0.246,0.2574,0.2392,0.2374,0.2507,0.2498,0.2504,0.2494,0.2594,0.2593,0.2593,0.2593,0,0.1366,0.141,0.1443,0.1527,0.1564,0.1611,0.1756,0.1819,0.1962,0.2086,0.2141,0.2301,0.2384,0.2465,0.255,0.2481,0.2481,0.2443,0.2571,0.2559,0.2256,0.2247,0.2271,0.2265,0.2261,0.2257,0.2253,0,0.1331,0.1342,0.1438,0.1473,0.1519,0.1608,0.167,0.1811,0.1882,0.2087,0.2128,0.2273,0.2355,0.2331,0.2421,0.2421,0.2398,0.2366,0.2313,0.2246,0.2228,0.2226,0.2223,0.2246,0.2245,0.2243,0.2242,0,0.1273,0.1326,0.136,0.1431,0.1495,0.1559,0.1657,0.1696,0.1855,0.1999,0.2064,0.2105,0.2186,0.2227,0.2247,0.2248,0.2367,0.2316,0.2325,0.2275,0.2216,0.2202,0.2205,0.2226,0.2228,0.2229,0.223,0,0.1249,0.1262,0.1324,0.1372,0.145,0.1481,0.1542,0.1606,0.1688,0.189,0.1903,0.2041,0.2169,0.2139,0.2161,0.2142,0.2102,0.2017,0.2041,0.206,0.1972,0.1866,0.1756,0,0,0,0,0,0.1214,0.1218,0.1258,0.1301,0.1371,0.1417,0.1519,0.158,0.1722,0.1714,0.1803,0.186,0.1892,0.1961,0.1899,0.2066,0.2113,0.1981,0.2029,0.2134,0.2153,0.2068,0,0,0,0,0,0,0.1191,0.123,0.1228,0.123,0.1248,0.1313,0.137,0.1463,0.146,0.1609,0.1636,0.174,0.1802,0.1915,0.1866,0.1883,0.1869,0.2061,0.2056,0.2123,0.214,0.2156,0.2075,0,0,0,0,0]},{"header":{"parameterUnit":"m.s-1","parameterCategory":2,"la1":30.2991,"la2":30.254,"lo1":-89.0895,"lo2":-89.0444,"dy":0.0017,"dx":0.0017,"nx":28,"ny":28,"refTime":"2024-06-20T09:00:00:Z","depth":"4","parameterNumber":3,"parameterNumberName":"V-component_of_CURRENTS"},"data":[0,0,0,0,0,0,0,0,0,0,0,0,0,0,0,0,0,0,0,0,0,0,0,0,0,0,0,0,0,0,0,0,0,0,0,0,0,0,0,0,0,0,0,0,0,0,0,0,0,0,0,0,0,0,0,0,0,0,0.0251,0.0251,0,0.0244,0.0244,0.0244,0.0238,0.0238,0.0238,0.0238,0.0238,0.0238,0.0238,0,0,0,0,0,0,0,0,0,0,0,0,0,0.0229,0.023,0.0251,0.0251,0.0251,0.0244,0.0244,0.0244,0.0238,0.0238,0.0238,0.0238,0.0238,0.0238,0.0238,0,0,0,0,0,0,0,0,0,0,0,0,0,0.0232,0.023,0.0251,0.0247,0.0247,0.0244,0.0244,0.0244,0.0238,0.0238,0.0238,0.0238,0.0238,0.0238,0.0238,0.024,0,0,0.0238,0.0238,0,0,0,0,0,0,0,0,0.0232,0.0233,0.0248,0.0248,0.0247,0.0242,0.0236,0.0243,0.0238,0.0242,0.0238,0.0238,0.024,0.024,0.0238,0.024,0.024,0.0238,0.0238,0.0238,0.0238,0,0,0,0,0,0,0,0.0232,0.0233,0.0248,0.0248,0.0247,0.0236,0.0236,0.0237,0.0241,0.0241,0.0241,0.024,0.024,0.0238,0.0238,0.024,0.0238,0.0238,0.0238,0.0238,0.0247,0.0247,0,0,0,0,0,0,0.0235,0.0233,0.0248,0.0248,0.0239,0.0236,0.0237,0.0244,0.0241,0.0241,0.024,0.024,0.0238,0.0238,0.0238,0.026,0.0238,0.0238,0.0238,0.0247,0.0247,0.0247,0,0,0,0,0,0,0.0235,0.0237,0.0249,0.024,0.0241,0.0237,0.0244,0.0244,0.0245,0.024,0.024,0.0243,0.0238,0.0238,0.0245,0.0259,0.0238,0.0238,0.0247,0.0247,0.0247,0.0291,0,0,0,0,0,0,0.0234,0.0237,0.0245,0.024,0.0241,0.0253,0.0244,0.0244,0.0244,0.0244,0.0242,0.0242,0.0238,0.0245,0.0245,0.0259,0.0238,0.0246,0.0247,0.0247,0.0289,0.0292,0.0295,0,0,0,0,0,0.0233,0.0248,0.0245,0.0247,0.0252,0.0254,0.0253,0.025,0.0245,0.0249,0.0248,0.0242,0.0247,0.0245,0.0245,0.026,0.0246,0.0247,0.0247,0.0287,0.0292,0.0295,0,0,0,0,0,0,0.0243,0.0249,0.0246,0.0261,0.0259,0.0253,0.026,0.0252,0.0254,0.0255,0.0247,0.0247,0.0257,0.0249,0.0247,0.0261,0.0245,0.0245,0.0275,0.0279,0.0282,0.0289,0.0238,0,0,0,0,0,0.0249,0.0263,0.0259,0.0271,0.0273,0.0265,0.0266,0.0262,0.0261,0.0261,0.0261,0.0258,0.0258,0.0262,0.026,0.0271,0.0249,0.0277,0.0281,0.0284,0.0288,0.0265,0.0267,0.0249,0.0249,0.0249,0,0,0.0254,0.026,0.0267,0.0274,0.0274,0.0286,0.0266,0.0271,0.0281,0.0261,0.028,0.027,0.0262,0.0274,0.0277,0.0271,0.0276,0.0284,0.0287,0.029,0.0266,0.0268,0.0269,0.0249,0.0249,0.0249,0,0,0.0276,0.028,0.0298,0.0302,0.0304,0.0302,0.0304,0.0302,0.0302,0.0311,0.03,0.0297,0.0301,0.0299,0.0297,0.0314,0.0292,0.0314,0.0342,0.032,0.0321,0.0322,0.0293,0.0291,0.0319,0.0319,0.0319,0,0.0282,0.0308,0.0302,0.0321,0.033,0.0313,0.0333,0.0331,0.0331,0.0338,0.0323,0.0322,0.0312,0.0325,0.033,0.0323,0.0304,0.0331,0.0325,0.0325,0.0326,0.0295,0.0293,0.0321,0.0321,0.0321,0.0321,0,0.0316,0.0337,0.0349,0.0371,0.0378,0.0392,0.0389,0.0396,0.039,0.0388,0.0393,0.0371,0.0372,0.0365,0.0355,0.0358,0.0341,0.033,0.0317,0.033,0.0297,0.0294,0.0325,0.0324,0.0323,0.0323,0,0,0.0332,0.0367,0.0373,0.0395,0.0407,0.042,0.0438,0.0453,0.0472,0.0454,0.0469,0.0454,0.0437,0.0432,0.0412,0.0391,0.037,0.0366,0.0364,0.0341,0.0317,0.029,0.0283,0.036,0.0359,0.0359,0.0292,0,0.0362,0.0411,0.0419,0.0467,0.0492,0.0489,0.0511,0.052,0.0519,0.0529,0.0494,0.05,0.0464,0.0463,0.0436,0.039,0.0364,0.0389,0.0304,0.0302,0.028,0.0279,0.0358,0.0289,0.0288,0.0287,0.0287,0,0.0396,0.0427,0.0478,0.0525,0.0536,0.0561,0.0598,0.0616,0.0619,0.0615,0.0603,0.0574,0.0545,0.0505,0.0427,0.0447,0.0388,0.0341,0.0337,0.0296,0.0269,0.0273,0.028,0.028,0.0281,0.0281,0.0282,0,0.0417,0.0471,0.0517,0.0532,0.0577,0.0603,0.0628,0.0647,0.0672,0.0671,0.0678,0.0635,0.0612,0.0534,0.0435,0.0434,0.0336,0.0322,0.0239,0.0236,0.0261,0.0261,0.0262,0.0262,0.0262,0.0262,0.0262,0,0.0449,0.0489,0.0535,0.0562,0.0626,0.064,0.0703,0.0718,0.0739,0.0771,0.0727,0.0723,0.0619,0.0548,0.0452,0.0333,0.0348,0.0242,0.0218,0.028,0.0283,0.0258,0.0259,0.026,0.026,0.0261,0.0261,0,0.0468,0.0496,0.0556,0.0614,0.064,0.0686,0.0759,0.0797,0.081,0.0843,0.0843,0.0791,0.0699,0.0583,0.0451,0.036,0.0246,0.02,0.0272,0.0254,0.0155,0.0158,0.0102,0.0101,0.0099,0.0098,0.0098,0,0.0482,0.0514,0.0596,0.0636,0.0669,0.074,0.0789,0.0831,0.0866,0.088,0.0888,0.0818,0.0764,0.0559,0.0434,0.0247,0.0217,0.0151,0.0152,0.0157,0.0139,0.0145,0.015,0.0096,0.0095,0.0095,0.0095,0,0.0506,0.0536,0.0585,0.0667,0.073,0.0806,0.0873,0.09,0.0937,0.0954,0.0918,0.0815,0.0708,0.0552,0.0408,0.0273,0.019,0.0137,0.0139,0.0139,0.0148,0.0133,0.014,0.009,0.0091,0.0091,0.0091,0,0.0524,0.0557,0.0617,0.0689,0.077,0.0836,0.0879,0.0911,0.0946,0.095,0.0936,0.0825,0.0768,0.0565,0.0432,0.0296,0.0257,0.02,0.0198,0.0201,0.0246,0.0273,0.0233,0,0,0,0,0,0.0535,0.0566,0.0631,0.0705,0.0784,0.0832,0.0915,0.0946,0.0979,0.0955,0.0946,0.0844,0.0646,0.0568,0.0427,0.04,0.0229,0.0227,0.0162,0.0066,0.0071,0.0104,0,0,0,0,0,0,0.0539,0.0596,0.0623,0.0702,0.075,0.0837,0.0891,0.0919,0.0906,0.0918,0.0821,0.0785,0.0601,0.0721,0.0415,0.0377,0.031,0.0146,0.0142,0.0063,0.0068,0.0072,0.0108,0,0,0,0,0]}]]